Stations météo

Publicité
Bastia, France (7790): Température de l'air & dewpoint: 16.07.2019 18:00:00 - 22.07.2019 18:00:00 (CEST)Bastia, France (7790): Température de l'air 5cm: 16.07.2019 18:00:00 - 22.07.2019 18:00:00 (CEST)Bastia, France (7790): Température de l'air -20cm & Température de l'air -100cm: 16.07.2019 18:00:00 - 22.07.2019 18:00:00 (CEST)Bastia, France (7790): Vitesse du vent & gusts: 16.07.2019 18:00:00 - 22.07.2019 18:00:00 (CEST)Bastia, France (7790): Direction du vent: 16.07.2019 18:00:00 - 22.07.2019 18:00:00 (CEST)Bastia, France (7790): reduced air pressure: 16.07.2019 18:00:00 - 22.07.2019 18:00:00 (CEST)Bastia, France (7790): visibility: 16.07.2019 18:00:00 - 22.07.2019 18:00:00 (CEST)Bastia, France (7790): Ensoleillement: 16.07.2019 18:00:00 - 22.07.2019 18:00:00 (CEST)Bastia, France (7790): Quantités de précipitations: 16.07.2019 18:00:00 - 22.07.2019 18:00:00 (CEST)
Date & Time tt [°C] td [°C] tt 5cm [°C] tt -20cm [°C] tt -100cm [°C] ff [km/h] ff [knt] fx [km/h] fx [knt] dd ppp [hPa] vv [km] sd [min] rr [mm]
22.07.2019 18:00:00 - - - - - - - - - - - - - -
22.07.2019 17:00:00 28,8 20,8 37,5 26,1 23,5 9 5 24 13 NNE 1020,4 41 55 0,0
22.07.2019 16:00:00 29,6 21,8 39,0 26,0 23,5 12 7 33 18 NNE 1020,9 52 60 0,0
22.07.2019 15:00:00 29,8 20,4 42,3 26,0 23,5 9 5 23 12 NNE 1021,0 36 60 0,0
22.07.2019 14:00:00 29,7 21,4 40,6 26,0 23,5 13 7 31 17 ENE 1021,3 20 60 0,0
22.07.2019 13:00:00 28,9 21,1 39,3 26,0 23,4 11 6 21 12 ENE 1021,6 20 60 0,0
22.07.2019 12:00:00 29,2 19,5 39,5 26,1 23,5 13 7 22 12 NE 1021,8 30 60 0,0
22.07.2019 11:00:00 28,5 18,9 35,9 26,1 23,5 10 5 25 13 N 1021,8 19 60 0,0
22.07.2019 10:00:00 27,7 20,5 32,4 26,2 23,5 11 6 20 11 N 1021,8 20 60 0,0
22.07.2019 09:00:00 27,2 19,0 26,8 26,2 23,4 5 3 16 8 NW 1021,4 19 60 0,0
22.07.2019 08:00:00 24,2 18,6 20,8 26,3 23,5 7 4 14 7 S 1021,1 29 58 0,0
22.07.2019 07:00:00 21,4 18,2 19,1 26,4 23,4 7 4 10 6 SW 1021,3 26 13 0,0
22.07.2019 06:00:00 20,7 17,7 18,7 26,4 23,4 6 3 11 6 SW 1021,0 22 0 0,0
22.07.2019 05:00:00 20,7 17,7 19,1 26,5 23,5 8 4 10 6 SW 1020,8 26 0 0,0
22.07.2019 04:00:00 21,0 18,2 19,3 26,5 23,4 8 4 11 6 SW 1021,2 27 0 0,0
22.07.2019 03:00:00 21,4 18,6 19,9 26,5 23,4 6 3 10 5 SW 1021,4 27 0 0,0
22.07.2019 02:00:00 23,1 18,4 19,7 26,5 23,4 7 4 11 6 WNW 1021,5 36 0 0,0
22.07.2019 01:00:00 22,4 19,4 19,7 26,5 23,4 3 2 7 4 W 1021,5 30 0 0,0
22.07.2019 00:00:00 22,9 19,7 20,9 26,5 23,4 5 3 8 5 SSW 1021,3 27 0 0,0
21.07.2019 23:00:00 23,4 20,1 21,8 26,5 23,4 6 3 9 5 SW 1021,3 30 0 0,0
21.07.2019 22:00:00 24,2 21,5 21,8 26,4 23,4 3 1 4 2 WSW 1021,0 28 0 0,0
21.07.2019 21:00:00 25,3 21,0 22,9 26,3 23,4 0 0 13 7 N 1020,4 32 14 0,0
21.07.2019 20:00:00 26,7 21,0 29,1 26,2 23,4 8 5 20 11 SE 1020,1 47 60 0,0
21.07.2019 19:00:00 27,8 20,6 32,2 26,1 23,4 11 6 18 10 ESE 1019,8 30 60 0,0
21.07.2019 18:00:00 29,0 21,2 37,4 26,0 23,4 11 6 18 10 ESE 1019,7 58 60 0,0
21.07.2019 17:00:00 29,4 22,4 39,6 25,9 23,4 11 6 21 12 SE 1019,9 40 60 0,0
21.07.2019 16:00:00 29,8 20,6 40,6 25,8 23,4 13 7 22 12 SE 1020,2 37 60 0,0
21.07.2019 15:00:00 29,8 20,1 40,8 25,8 23,4 14 8 24 13 ESE 1020,4 20 60 0,0
21.07.2019 14:00:00 29,5 21,7 40,4 25,7 23,4 15 8 24 13 ESE 1020,7 32 60 0,0
21.07.2019 13:00:00 29,2 20,4 39,8 25,8 23,4 14 7 24 13 ESE 1020,9 32 60 0,0
21.07.2019 12:00:00 29,2 20,6 38,8 25,8 23,4 12 7 21 12 ESE 1020,6 30 57 0,0
21.07.2019 11:00:00 28,5 20,2 36,3 25,9 23,4 8 5 18 10 ESE 1020,5 29 60 0,0
21.07.2019 10:00:00 28,1 19,3 31,9 25,9 23,4 7 4 13 7 E 1020,4 37 60 0,0
21.07.2019 09:00:00 25,8 18,7 26,0 26,0 23,4 6 3 18 10 SSE 1020,4 40 60 0,0
21.07.2019 08:00:00 23,6 18,3 21,4 26,1 23,4 7 4 21 11 S 1020,2 25 60 0,0
21.07.2019 07:00:00 21,6 17,4 19,3 26,1 23,4 9 5 23 13 SSW 1020,3 29 34 0,0
21.07.2019 06:00:00 20,7 17,5 18,0 26,1 23,4 10 6 15 8 S 1019,9 27 - 0,0
21.07.2019 05:00:00 20,9 17,7 18,3 26,2 23,4 6 3 10 5 SW 1019,8 26 0 0,0
21.07.2019 04:00:00 21,0 18,2 19,2 26,3 23,4 9 5 13 7 SSW 1019,7 24 0 0,0
21.07.2019 03:00:00 20,9 18,5 19,0 26,3 23,4 7 4 10 5 SSW 1019,7 24 0 0,0
21.07.2019 02:00:00 21,2 19,3 18,6 26,3 23,4 4 2 6 4 SW 1019,7 17 0 0,0
21.07.2019 01:00:00 21,7 19,8 19,3 26,3 23,4 4 2 6 4 SW 1019,5 14 0 0,0
21.07.2019 00:00:00 21,9 19,8 20,1 26,3 23,4 5 3 6 4 S 1019,4 19 0 0,0
20.07.2019 23:00:00 23,1 19,5 20,8 26,2 23,4 5 3 9 5 WSW 1019,2 29 0 0,0
20.07.2019 22:00:00 23,5 20,4 20,7 26,2 23,4 3 2 8 5 SSW 1019,0 27 0 0,0
20.07.2019 21:00:00 24,5 20,4 23,0 26,1 23,4 6 4 11 6 SE 1018,4 32 14 0,0
20.07.2019 20:00:00 26,0 20,1 28,8 26,0 23,4 9 5 20 11 SE 1018,4 35 60 0,0
20.07.2019 19:00:00 26,9 20,5 30,8 25,9 23,3 13 7 23 12 SE 1018,5 33 60 0,0
20.07.2019 18:00:00 27,9 21,0 35,8 25,8 23,3 14 8 22 12 ESE 1018,5 34 60 0,0
20.07.2019 17:00:00 28,1 20,4 38,4 25,7 23,3 13 7 23 12 ESE 1018,6 20 60 0,0
20.07.2019 16:00:00 28,2 20,5 39,7 25,6 23,3 14 7 26 14 SE 1018,9 29 60 0,0
20.07.2019 15:00:00 28,4 19,1 40,2 25,6 23,4 14 7 25 13 ESE 1019,0 25 60 0,0
20.07.2019 14:00:00 28,3 20,8 39,9 25,6 23,3 13 7 27 15 ESE 1018,8 20 60 0,0
20.07.2019 13:00:00 28,2 21,2 38,7 25,6 23,4 14 8 27 15 ESE 1018,8 19 60 0,0
20.07.2019 12:00:00 27,6 20,4 36,8 25,6 23,3 16 9 27 14 ESE 1018,8 20 60 0,0
20.07.2019 11:00:00 27,1 20,9 34,3 25,6 23,3 16 8 24 13 ESE 1018,6 20 60 0,0
20.07.2019 10:00:00 26,3 20,6 30,0 25,7 23,3 14 7 21 12 ESE 1018,3 19 58 0,0
20.07.2019 09:00:00 24,9 20,6 24,6 25,7 23,3 6 3 11 6 SE 1018,2 15 60 0,0
20.07.2019 08:00:00 22,0 19,2 19,2 25,8 23,3 6 3 10 5 SSW 1017,8 20 60 0,0
20.07.2019 07:00:00 19,5 18,0 17,3 25,9 23,3 7 4 10 6 SW 1017,5 19 3 0,0
20.07.2019 06:00:00 19,2 17,9 16,6 25,9 23,3 7 4 10 5 SW 1017,3 18 0 0,0
20.07.2019 05:00:00 19,2 18,2 16,7 26,0 23,3 4 2 8 5 SSW 1017,1 12 0 0,0
20.07.2019 04:00:00 19,3 18,1 15,6 26,0 23,3 2 1 7 4 SSW 1017,0 10 0 0,0
20.07.2019 03:00:00 20,1 18,9 16,7 26,0 23,3 6 3 8 4 SW 1016,8 13 0 0,0
20.07.2019 02:00:00 20,4 19,2 17,3 26,0 23,3 2 1 8 4 SSW 1016,7 8 0 0,0
20.07.2019 01:00:00 21,2 19,7 19,3 26,0 23,3 5 3 8 4 SW 1016,8 13 0 0,0
20.07.2019 00:00:00 21,8 20,3 19,4 26,0 23,3 4 2 8 4 SW 1016,9 13 0 0,0
19.07.2019 23:00:00 22,6 20,3 20,2 26,0 23,3 4 2 8 5 SSE 1016,7 14 0 0,0
19.07.2019 22:00:00 23,4 20,3 21,4 25,9 23,3 5 3 8 4 S 1016,6 17 0 0,0
19.07.2019 21:00:00 24,2 20,3 22,7 25,8 23,3 5 3 9 5 SSE 1016,1 23 0 0,0
19.07.2019 20:00:00 25,6 20,4 26,6 25,7 23,3 8 5 16 9 SE 1015,7 32 37 0,0
19.07.2019 19:00:00 26,8 20,2 31,3 25,6 23,3 11 6 20 11 ESE 1015,5 38 60 0,0
19.07.2019 18:00:00 27,2 20,3 36,0 25,5 23,3 12 6 22 12 SE 1015,6 29 60 0,0
19.07.2019 17:00:00 27,9 20,7 38,2 25,4 23,3 11 6 23 13 ESE 1015,7 37 60 0,0
19.07.2019 16:00:00 28,0 20,0 39,2 25,3 23,3 13 7 24 13 ESE 1015,8 36 60 0,0
19.07.2019 15:00:00 28,1 20,6 39,9 25,2 23,3 14 8 24 13 ESE 1016,2 20 60 0,0
19.07.2019 14:00:00 27,6 20,2 39,5 25,2 23,3 15 8 26 14 E 1016,3 20 60 0,0
19.07.2019 13:00:00 27,8 19,1 38,8 25,2 23,3 13 7 23 12 ESE 1016,2 20 60 0,0
19.07.2019 12:00:00 27,7 19,8 38,0 25,2 23,3 14 7 23 13 E 1016,3 49 60 0,0
19.07.2019 11:00:00 27,2 20,3 35,1 25,3 23,3 12 7 23 13 E 1016,2 54 60 0,0
19.07.2019 10:00:00 27,0 19,6 31,2 25,3 23,3 9 5 16 8 SSE 1015,8 25 60 0,0
19.07.2019 09:00:00 25,1 19,7 25,2 25,4 23,4 4 2 10 5 S 1015,7 38 60 0,0
19.07.2019 08:00:00 22,5 18,7 20,7 25,5 23,3 7 4 10 5 SSW 1015,3 33 60 0,0
19.07.2019 07:00:00 20,5 18,1 18,6 25,5 23,4 7 4 10 5 SSW 1015,1 30 24 -
19.07.2019 06:00:00 19,7 17,5 18,5 25,6 23,4 6 4 9 5 SW 1014,9 20 0 -
19.07.2019 05:00:00 19,8 17,6 18,8 25,6 23,3 7 4 10 6 SW 1014,7 29 0 0,0
19.07.2019 04:00:00 19,6 17,6 18,6 25,6 23,4 7 4 9 5 SW 1014,6 29 0 0,0
19.07.2019 03:00:00 20,1 18,0 18,8 25,7 23,3 7 4 10 5 SW 1014,6 27 0 0,0
19.07.2019 02:00:00 21,1 18,1 19,3 25,7 23,4 8 4 13 7 WSW 1014,4 30 0 0,0
19.07.2019 01:00:00 21,2 18,6 18,1 25,7 23,3 5 3 7 4 WSW 1014,1 33 0 0,0
19.07.2019 00:00:00 20,8 18,4 18,4 25,7 23,4 3 2 7 4 SW 1013,6 28 0 -
18.07.2019 23:00:00 21,6 19,0 19,5 25,6 23,4 5 3 8 4 SW 1013,5 31 0 0,0
18.07.2019 22:00:00 22,4 19,4 20,1 25,6 23,4 5 3 6 4 SSW 1013,2 41 0 0,0
18.07.2019 21:00:00 23,9 19,2 22,4 25,5 23,4 4 2 11 6 SSE 1012,7 52 8 0,0
18.07.2019 20:00:00 25,4 18,6 26,3 25,4 23,4 7 4 15 8 SE 1012,2 39 36 0,0
18.07.2019 19:00:00 26,1 18,0 27,7 25,2 23,4 8 4 19 11 ESE 1012,0 58 25 0,0
18.07.2019 18:00:00 26,8 18,1 31,9 25,2 23,4 12 7 20 11 ESE 1012,0 48 37 0,0
18.07.2019 17:00:00 27,2 17,4 34,0 25,1 23,4 11 6 25 13 ESE 1012,3 60 49 0,0
18.07.2019 16:00:00 27,6 17,2 35,7 25,0 23,4 11 6 21 12 ENE 1012,4 55 54 0,0
18.07.2019 15:00:00 27,1 17,0 35,9 25,0 23,4 10 5 25 14 E 1012,4 51 56 0,0
18.07.2019 14:00:00 27,7 18,1 39,1 24,9 23,4 12 6 26 14 ENE 1012,5 59 60 0,0
18.07.2019 13:00:00 28,0 17,8 37,4 24,9 23,4 16 8 27 15 E 1012,2 57 60 0,0
18.07.2019 12:00:00 27,8 17,9 36,1 25,0 23,4 14 7 25 14 E 1012,2 60 60 0,0
18.07.2019 11:00:00 27,3 17,5 34,7 25,0 23,4 13 7 23 13 ESE 1012,0 60 60 0,0
18.07.2019 10:00:00 26,5 17,6 29,3 25,1 23,4 13 7 22 12 SSE 1011,8 50 58 0,0
18.07.2019 09:00:00 24,6 16,8 25,0 25,2 23,4 8 4 13 7 S 1011,8 60 60 0,0
18.07.2019 08:00:00 22,4 15,7 19,5 25,2 23,4 7 4 17 9 S 1011,7 55 60 0,0
18.07.2019 07:00:00 19,6 15,9 16,8 25,3 23,4 9 5 14 7 SSW 1011,6 34 37 0,0
18.07.2019 06:00:00 18,4 15,6 16,7 25,3 23,5 8 4 11 6 SSW 1011,5 20 0 0,0
18.07.2019 05:00:00 18,7 15,8 16,9 25,3 23,4 7 4 10 6 SSW 1011,5 20 0 -
18.07.2019 04:00:00 19,2 16,2 16,9 25,4 23,5 6 3 10 5 SSW 1011,4 20 0 0,0
18.07.2019 03:00:00 19,8 16,4 17,5 25,4 23,5 8 4 12 6 SSW 1011,7 20 0 0,0
18.07.2019 02:00:00 20,2 17,0 17,9 25,4 23,5 8 4 10 5 S 1011,9 53 0 0,0
18.07.2019 01:00:00 22,3 17,0 19,1 25,4 23,5 9 5 16 9 SW 1012,2 60 0 0,0
18.07.2019 00:00:00 22,4 17,1 19,1 25,3 23,5 6 4 18 10 WSW 1012,4 59 0 0,0
17.07.2019 23:00:00 21,4 17,6 18,6 25,2 23,5 4 2 9 5 W 1012,2 57 0 0,0
17.07.2019 22:00:00 21,9 18,3 19,7 25,2 23,5 4 2 10 5 S 1012,2 59 0 0,0
17.07.2019 21:00:00 23,6 18,5 21,3 25,1 23,5 5 3 8 4 SSE 1011,9 60 28 0,0
17.07.2019 20:00:00 25,6 18,0 26,2 25,0 23,5 5 3 11 6 SE 1012,0 60 16 0,0
17.07.2019 19:00:00 27,1 16,4 31,9 24,9 23,5 7 4 16 9 ESE 1012,1 41 60 0,0
17.07.2019 18:00:00 27,1 16,4 32,4 24,8 23,5 9 5 21 11 E 1012,5 44 47 0,0
17.07.2019 17:00:00 27,4 16,1 36,7 24,7 23,5 13 7 25 14 NNE 1012,9 60 60 0,0
17.07.2019 16:00:00 27,5 16,8 35,6 24,6 23,6 11 6 24 13 NE 1013,1 51 45 0,0
17.07.2019 15:00:00 27,7 16,3 39,7 24,6 23,6 10 6 25 13 NNE 1013,3 58 60 0,0
17.07.2019 14:00:00 28,9 16,1 40,2 24,6 23,6 12 7 27 15 NE 1013,4 59 60 0,0
17.07.2019 13:00:00 27,4 16,1 39,6 24,6 23,6 11 6 23 12 E 1013,7 60 60 0,0
17.07.2019 12:00:00 27,8 15,8 38,1 24,6 23,6 11 6 24 13 E 1013,9 60 60 0,0
17.07.2019 11:00:00 27,7 16,0 35,1 24,7 23,6 10 5 18 10 E 1013,8 60 60 0,0
17.07.2019 10:00:00 26,5 15,2 29,3 24,8 23,6 5 3 18 10 S 1014,0 60 60 0,0
17.07.2019 09:00:00 24,2 12,2 23,9 24,9 23,6 13 7 26 14 SSW 1014,0 52 60 0,0
17.07.2019 08:00:00 21,9 10,7 19,9 24,9 23,6 14 8 25 13 SW 1013,7 52 60 0,0
17.07.2019 07:00:00 20,1 10,5 18,0 25,0 23,6 13 7 24 13 SSW 1013,8 56 37 0,0
17.07.2019 06:00:00 19,3 10,6 16,4 25,0 23,6 13 7 19 11 SW 1013,7 60 0 0,0
17.07.2019 05:00:00 18,8 11,1 15,2 25,1 23,6 9 5 16 9 SSW 1013,6 60 0 0,0
17.07.2019 04:00:00 20,6 10,4 17,9 25,2 23,7 6 3 24 13 SW 1013,6 52 0 0,0
17.07.2019 03:00:00 22,0 10,8 20,0 25,2 23,7 18 10 29 15 SW 1013,7 60 0 0,0
17.07.2019 02:00:00 21,5 11,5 19,9 25,2 23,7 17 9 25 14 SW 1014,1 60 0 0,0
17.07.2019 01:00:00 22,7 11,1 20,3 25,2 23,7 14 8 25 14 SW 1014,2 60 0 0,0
17.07.2019 00:00:00 22,6 11,9 16,3 25,2 23,7 12 6 23 12 SW 1014,1 60 0 0,0
16.07.2019 23:00:00 19,7 14,7 16,5 25,2 23,7 6 3 11 6 SW 1013,9 60 0 0,0
16.07.2019 22:00:00 21,3 14,2 17,1 25,2 23,8 5 3 10 5 WSW 1013,7 60 0 0,0
16.07.2019 21:00:00 24,3 12,3 21,6 25,1 23,7 7 4 22 12 W 1013,3 60 17 0,0
16.07.2019 20:00:00 27,3 13,6 29,7 25,0 23,8 13 7 32 17 NW 1013,1 60 60 0,0
16.07.2019 19:00:00 29,2 11,7 31,2 24,9 23,8 14 8 30 16 N 1012,9 41 60 0,0
16.07.2019 18:00:00 29,3 10,4 35,4 24,8 23,8 18 10 30 16 N 1013,1 53 60 0,0

tt = Température de l'air
td = dewpoint
tt 5cm = Température de l'air 5cm
tt -20cm = Température de l'air -20cm
tt -100cm = Température de l'air -100cm
ff = Vitesse du vent
fx = gusts
dd = Direction du vent
ppp = reduced air pressure
vv = visibility
sd = Ensoleillement
rr = Quantités de précipitations

stations d'obs. à proximité